User: anonymous   Login
Location: Brede
(50.9167°N, 0.6000°E)
Time: 18:18:27
(UTC+00:00)
Language:

Cosmos 1503 Rocket - Orbit

View from above orbital plane
View from above orbital plane
View from above satellite
View from above satellite

Ground track
Ground track

The orbit data is extracted from the following two-line orbital elements,

1 14402U 83103B   20296.10596479  .00000067  00000-0  31966-4 0  9998
2 14402  74.0460 169.9811 0025860  69.6169 290.7758 14.35988946937865
Epoch (UTC): 22 October 2020 02:32:35
Eccentricity: 0.0025860
inclination: 74.0460°
perigee height: 753 km
apogee height: 790 km
right ascension of ascending node: 169.9811°
argument of perigee: 69.6169°
revolutions per day: 14.35988946
mean anomaly at epoch: 290.7758°
orbit number at epoch: 93786

The dashed part of the orbit path shows where the satellite is in the earth's shadow,  

DLR